This is the latest recevied weather packets stored in our database for station/object KF0EZB. If no packets are shown the sender has not sent any weather packets the latest 10 day(s).
| Time | Temp. | Humidity | Pressure | Rain* | Wind** | Luminosity | Snow |
|---|---|---|---|---|---|---|---|
| 1778019736 | 11.11° C | 57% | 1012.2 hPa | 0 mm | - | 118 W/m² | - |
| 1778019433 | 11.67° C | 56% | 1012.4 hPa | 0 mm | - | 121 W/m² | - |
| 1778019130 | 11.67° C | 58% | 1012.3 hPa | 0 mm | - | 126 W/m² | - |
| 1778018827 | 11.67° C | 57% | 1012 hPa | 0 mm | - | 143 W/m² | - |
| 1778018525 | 11.67° C | 55% | 1012.3 hPa | 0 mm | - | 131 W/m² | - |
| 1778018222 | 11.67° C | 55% | 1012.2 hPa | 0 mm | - | 164 W/m² | - |
| 1778017920 | 12.22° C | 54% | 1012 hPa | 0 mm | - | 213 W/m² | - |
| 1778017617 | 12.78° C | 52% | 1012.2 hPa | 0 mm | - | 218 W/m² | - |
| 1778017315 | 12.22° C | 52% | 1012.3 hPa | 0 mm | - | 321 W/m² | - |
| 1778017012 | 11.67° C | 51% | 1012.5 hPa | 0 mm | - | 308 W/m² | - |
| 1778016709 | 12.22° C | 51% | 1012.6 hPa | 0 mm | - | 282 W/m² | - |
| 1778016405 | 12.22° C | 50% | 1012.6 hPa | 0 mm | - | 260 W/m² | - |
| 1778016102 | 12.22° C | 51% | 1012.6 hPa | 0 mm | - | 269 W/m² | - |
| 1778015799 | 11.67° C | 51% | 1012.6 hPa | 0 mm | - | 219 W/m² | - |
| 1778015497 | 12.22° C | 52% | 1012.7 hPa | 0 mm | - | 192 W/m² | - |
| 1778015193 | 12.22° C | 52% | 1012.5 hPa | 0 mm | - | 290 W/m² | - |
| 1778014890 | 11.67° C | 53% | 1012.4 hPa | 0 mm | - | 253 W/m² | - |
| 1778014587 | 11.67° C | 53% | 1012.8 hPa | 0 mm | - | 205 W/m² | - |
| 1778014286 | 11.67° C | 54% | 1012.9 hPa | 0 mm | - | 168 W/m² | - |
| 1778013982 | 11.67° C | 53% | 1012.6 hPa | 0 mm | - | 187 W/m² | - |
| 1778013680 | 11.67° C | 52% | 1012.6 hPa | 0 mm | - | 183 W/m² | - |
| 1778013376 | 11.67° C | 53% | 1012.7 hPa | 0 mm | - | 170 W/m² | - |
| 1778013074 | 12.78° C | 52% | 1012.6 hPa | 0 mm | - | 324 W/m² | - |
| 1778012769 | 12.22° C | 53% | 1012.5 hPa | 0 mm | - | 501 W/m² | - |
| 1778012465 | 12.78° C | 52% | 1012.7 hPa | 0 mm | - | 415 W/m² | - |
* Rain latest hour (hover to see other rain measurements)
** Current wind speed in m/s (hover to see current wind gust speed)